{"data":{"norad_id":58360,"epoch":"2026-05-25T02:45:28.236096Z","epoch_age_seconds":61560,"freshness":"FRESH","line1":"1 58360U 23177K   26145.11491014 -.00000523  00000+0 -94843-5 0  9995","line2":"2 58360  43.0018 293.6296 0001284 267.0611  93.0094 15.27573871139740","mean_motion":15.27573871,"eccentricity":0.0001284,"inclination_deg":43.0018,"raan_deg":293.6296,"arg_perigee_deg":267.0611,"mean_anomaly_deg":93.0094,"bstar":-9.4843e-6,"rev_number":13974,"period_min":94.267126934904,"perigee_km":482.18646988072,"apogee_km":483.9484271831,"semimajor_km":6861.2044485319,"source":"CELESTRAK","updated_at":"2026-05-25T13:38:18.607299Z"}}